Time,TemperatureF,DewpointF,PressureIn,WindDirection,WindDirectionDegrees,WindSpeedMPH,WindSpeedGustMPH,Humidity,HourlyPrecipIn,Conditions,Clouds,dailyrainin,SoftwareType,DateUTC
2013-08-31 00:43:00,-999.0,-99.9,-100.00,NNW,340,9.0,11.0,-999,-99.99,,,-99.99,,2013-08-31 05:43:00,
2013-08-31 00:53:00,-999.0,-99.9,-100.00,NNW,340,9.0,11.0,-999,-99.99,,,-99.99,,2013-08-31 05:53:00,
2013-08-31 01:02:00,-999.0,-99.9,-100.00,NNW,340,9.0,11.0,-999,-99.99,,,-99.99,,2013-08-31 06:02:00,
2013-08-31 01:12:00,-999.0,-99.9,-100.00,NNW,340,9.0,11.0,-999,-99.99,,,-99.99,,2013-08-31 06:12:00,
2013-08-31 01:22:00,-999.0,-99.9,-100.00,NNW,340,9.0,11.0,-999,-99.99,,,-99.99,,2013-08-31 06:22:00,
2013-08-31 01:32:00,-999.0,-99.9,-100.00,NNW,340,9.0,11.0,-999,-99.99,,,-99.99,,2013-08-31 06:32:00,
2013-08-31 01:42:00,-999.0,-99.9,-100.00,North,350,8.0,10.0,-999,-99.99,,,-99.99,,2013-08-31 06:42:00,
2013-08-31 01:52:00,-999.0,-99.9,-100.00,North,350,8.0,10.0,-999,-99.99,,,-99.99,,2013-08-31 06:52:00,
2013-08-31 02:12:00,-999.0,-99.9,-100.00,NW,320,7.0,9.0,-999,-99.99,,,-99.99,,2013-08-31 07:12:00,
2013-08-31 02:22:00,-999.0,-99.9,-100.00,NW,320,7.0,9.0,-999,-99.99,,,-99.99,,2013-08-31 07:22:00,
2013-08-31 02:32:00,-999.0,-99.9,-100.00,NW,320,7.0,9.0,-999,-99.99,,,-99.99,,2013-08-31 07:32:00,
2013-08-31 02:42:00,-999.0,-99.9,-100.00,NNW,340,6.0,8.0,-999,-99.99,,,-99.99,,2013-08-31 07:42:00,
2013-08-31 02:52:00,-999.0,-99.9,-100.00,NNW,340,6.0,8.0,-999,-99.99,,,-99.99,,2013-08-31 07:52:00,
2013-08-31 03:03:00,-999.0,-99.9,-100.00,NNW,340,6.0,8.0,-999,-99.99,,,-99.99,,2013-08-31 08:03:00,
2013-08-31 03:12:00,-999.0,-99.9,-100.00,NNW,340,7.0,9.0,-999,-99.99,,,-99.99,,2013-08-31 08:12:00,
2013-08-31 03:22:00,-999.0,-99.9,-100.00,NNW,340,7.0,9.0,-999,-99.99,,,-99.99,,2013-08-31 08:22:00,
2013-08-31 03:32:00,-999.0,-99.9,-100.00,NNW,340,7.0,9.0,-999,-99.99,,,-99.99,,2013-08-31 08:32:00,
2013-08-31 03:42:00,-999.0,-99.9,-100.00,North,350,8.0,9.0,-999,-99.99,,,-99.99,,2013-08-31 08:42:00,
2013-08-31 03:52:00,-999.0,-99.9,-100.00,North,350,8.0,9.0,-999,-99.99,,,-99.99,,2013-08-31 08:52:00,
2013-08-31 04:02:00,-999.0,-99.9,-100.00,North,350,8.0,9.0,-999,-99.99,,,-99.99,,2013-08-31 09:02:00,
2013-08-31 04:12:00,-999.0,-99.9,-100.00,North,10,3.0,6.0,-999,-99.99,,,-99.99,,2013-08-31 09:12:00,
2013-08-31 04:23:00,-999.0,-99.9,-100.00,North,10,3.0,6.0,-999,-99.99,,,-99.99,,2013-08-31 09:23:00,
2013-08-31 04:33:00,-999.0,-99.9,-100.00,North,10,3.0,6.0,-999,-99.99,,,-99.99,,2013-08-31 09:33:00,
2013-08-31 04:44:00,-999.0,-99.9,-100.00,North,350,6.0,7.0,-999,-99.99,,,-99.99,,2013-08-31 09:44:00,
2013-08-31 04:53:00,-999.0,-99.9,-100.00,North,350,6.0,7.0,-999,-99.99,,,-99.99,,2013-08-31 09:53:00,
2013-08-31 05:13:00,-999.0,-99.9,-100.00,NNW,340,7.0,9.0,-999,-99.99,,,-99.99,,2013-08-31 10:13:00,
2013-08-31 05:24:00,-999.0,-99.9,-100.00,NNW,340,7.0,9.0,-999,-99.99,,,-99.99,,2013-08-31 10:24:00,
2013-08-31 05:33:00,-999.0,-99.9,-100.00,NNW,340,7.0,9.0,-999,-99.99,,,-99.99,,2013-08-31 10:33:00,
2013-08-31 05:43:00,-999.0,-99.9,-100.00,North,0,0.0,0.0,-999,-99.99,,,-99.99,,2013-08-31 10:43:00,
2013-08-31 05:53:00,-999.0,-99.9,-100.00,North,0,0.0,0.0,-999,-99.99,,,-99.99,,2013-08-31 10:53:00,
2013-08-31 06:03:00,-999.0,-99.9,-100.00,North,0,0.0,0.0,-999,-99.99,,,-99.99,,2013-08-31 11:03:00,
2013-08-31 06:12:00,-999.0,-99.9,-100.00,North,350,7.0,9.0,-999,-99.99,,,-99.99,,2013-08-31 11:12:00,
2013-08-31 06:22:00,-999.0,-99.9,-100.00,North,350,7.0,9.0,-999,-99.99,,,-99.99,,2013-08-31 11:22:00,
2013-08-31 06:33:00,-999.0,-99.9,-100.00,North,350,7.0,9.0,-999,-99.99,,,-99.99,,2013-08-31 11:33:00,
2013-08-31 06:42:00,-999.0,-99.9,-100.00,NNW,330,7.0,9.0,-999,-99.99,,,-99.99,,2013-08-31 11:42:00,
2013-08-31 06:52:00,-999.0,-99.9,-100.00,NNW,330,7.0,9.0,-999,-99.99,,,-99.99,,2013-08-31 11:52:00,
2013-08-31 07:12:00,-999.0,-99.9,-100.00,North,350,9.0,10.0,-999,-99.99,,,-99.99,,2013-08-31 12:12:00,
2013-08-31 07:22:00,-999.0,-99.9,-100.00,North,350,9.0,10.0,-999,-99.99,,,-99.99,,2013-08-31 12:22:00,
2013-08-31 07:32:00,-999.0,-99.9,-100.00,North,350,9.0,10.0,-999,-99.99,,,-99.99,,2013-08-31 12:32:00,
2013-08-31 07:42:00,-999.0,-99.9,-100.00,NE,40,7.0,9.0,-999,-99.99,,,-99.99,,2013-08-31 12:42:00,
2013-08-31 07:52:00,-999.0,-99.9,-100.00,NE,40,7.0,9.0,-999,-99.99,,,-99.99,,2013-08-31 12:52:00,
2013-08-31 08:02:00,-999.0,-99.9,-100.00,NE,40,7.0,9.0,-999,-99.99,,,-99.99,,2013-08-31 13:02:00,
2013-08-31 08:11:00,-999.0,-99.9,-100.00,NNE,20,5.0,6.0,-999,-99.99,,,-99.99,,2013-08-31 13:11:00,
2013-08-31 08:22:00,-999.0,-99.9,-100.00,NNE,20,5.0,6.0,-999,-99.99,,,-99.99,,2013-08-31 13:22:00,
2013-08-31 08:32:00,-999.0,-99.9,-100.00,NNE,20,5.0,6.0,-999,-99.99,,,-99.99,,2013-08-31 13:32:00,
2013-08-31 08:42:00,-999.0,-99.9,-100.00,NE,50,8.0,10.0,-999,-99.99,,,-99.99,,2013-08-31 13:42:00,
2013-08-31 08:52:00,-999.0,-99.9,-100.00,NE,50,8.0,10.0,-999,-99.99,,,-99.99,,2013-08-31 13:52:00,
2013-08-31 09:02:00,-999.0,-99.9,-100.00,NE,50,8.0,10.0,-999,-99.99,,,-99.99,,2013-08-31 14:02:00,
2013-08-31 09:42:00,-999.0,-99.9,-100.00,ENE,70,9.0,10.0,-999,-99.99,,,-99.99,,2013-08-31 14:42:00,
2013-08-31 09:52:00,-999.0,-99.9,-100.00,ENE,70,9.0,10.0,-999,-99.99,,,-99.99,,2013-08-31 14:52:00,
2013-08-31 10:02:00,-999.0,-99.9,-100.00,ENE,70,9.0,10.0,-999,-99.99,,,-99.99,,2013-08-31 15:02:00,
2013-08-31 10:12:00,-999.0,-99.9,-100.00,ENE,70,11.0,13.0,-999,-99.99,,,-99.99,,2013-08-31 15:12:00,
2013-08-31 10:23:00,-999.0,-99.9,-100.00,ENE,70,11.0,13.0,-999,-99.99,,,-99.99,,2013-08-31 15:23:00,
2013-08-31 10:35:00,-999.0,-99.9,-100.00,ENE,70,11.0,13.0,-999,-99.99,,,-99.99,,2013-08-31 15:35:00,
2013-08-31 10:45:00,-999.0,-99.9,-100.00,East,80,10.0,10.0,-999,-99.99,,,-99.99,,2013-08-31 15:45:00,
2013-08-31 10:55:00,-999.0,-99.9,-100.00,East,80,10.0,10.0,-999,-99.99,,,-99.99,,2013-08-31 15:55:00,
2013-08-31 11:14:00,-999.0,-99.9,-100.00,ENE,70,11.0,13.0,-999,-99.99,,,-99.99,,2013-08-31 16:14:00,
2013-08-31 11:25:00,-999.0,-99.9,-100.00,ENE,70,11.0,13.0,-999,-99.99,,,-99.99,,2013-08-31 16:25:00,
2013-08-31 11:34:00,-999.0,-99.9,-100.00,ENE,70,11.0,13.0,-999,-99.99,,,-99.99,,2013-08-31 16:34:00,
2013-08-31 11:44:00,-999.0,-99.9,-100.00,ENE,70,10.0,11.0,-999,-99.99,,,-99.99,,2013-08-31 16:44:00,
2013-08-31 11:53:00,-999.0,-99.9,-100.00,ENE,70,10.0,11.0,-999,-99.99,,,-99.99,,2013-08-31 16:53:00,
2013-08-31 12:03:00,-999.0,-99.9,-100.00,ENE,70,10.0,11.0,-999,-99.99,,,-99.99,,2013-08-31 17:03:00,
2013-08-31 12:13:00,-999.0,-99.9,-100.00,East,90,8.0,9.0,-999,-99.99,,,-99.99,,2013-08-31 17:13:00,
2013-08-31 12:23:00,-999.0,-99.9,-100.00,East,90,8.0,9.0,-999,-99.99,,,-99.99,,2013-08-31 17:23:00,
2013-08-31 12:34:00,-999.0,-99.9,-100.00,East,90,8.0,9.0,-999,-99.99,,,-99.99,,2013-08-31 17:34:00,
2013-08-31 12:43:00,-999.0,-99.9,-100.00,East,100,7.0,8.0,-999,-99.99,,,-99.99,,2013-08-31 17:43:00,
2013-08-31 12:53:00,-999.0,-99.9,-100.00,East,100,7.0,8.0,-999,-99.99,,,-99.99,,2013-08-31 17:53:00,
2013-08-31 13:02:00,-999.0,-99.9,-100.00,East,100,7.0,8.0,-999,-99.99,,,-99.99,,2013-08-31 18:02:00,
2013-08-31 13:13:00,-999.0,-99.9,-100.00,East,90,6.0,7.0,-999,-99.99,,,-99.99,,2013-08-31 18:13:00,
2013-08-31 13:22:00,-999.0,-99.9,-100.00,East,90,6.0,7.0,-999,-99.99,,,-99.99,,2013-08-31 18:22:00,
2013-08-31 13:42:00,-999.0,-99.9,-100.00,ENE,70,7.0,8.0,-999,-99.99,,,-99.99,,2013-08-31 18:42:00,
2013-08-31 13:52:00,-999.0,-99.9,-100.00,ENE,70,7.0,8.0,-999,-99.99,,,-99.99,,2013-08-31 18:52:00,
2013-08-31 14:02:00,-999.0,-99.9,-100.00,ENE,70,7.0,8.0,-999,-99.99,,,-99.99,,2013-08-31 19:02:00,
2013-08-31 14:12:00,-999.0,-99.9,-100.00,East,90,6.0,7.0,-999,-99.99,,,-99.99,,2013-08-31 19:12:00,
2013-08-31 14:22:00,-999.0,-99.9,-100.00,East,90,6.0,7.0,-999,-99.99,,,-99.99,,2013-08-31 19:22:00,
2013-08-31 14:32:00,-999.0,-99.9,-100.00,East,90,6.0,7.0,-999,-99.99,,,-99.99,,2013-08-31 19:32:00,
2013-08-31 14:42:00,-999.0,-99.9,-100.00,ESE,110,7.0,8.0,-999,-99.99,,,-99.99,,2013-08-31 19:42:00,
2013-08-31 14:52:00,-999.0,-99.9,-100.00,ESE,110,7.0,8.0,-999,-99.99,,,-99.99,,2013-08-31 19:52:00,
2013-08-31 15:02:00,-999.0,-99.9,-100.00,ESE,110,7.0,8.0,-999,-99.99,,,-99.99,,2013-08-31 20:02:00,
2013-08-31 15:12:00,-999.0,-99.9,-100.00,East,100,7.0,8.0,-999,-99.99,,,-99.99,,2013-08-31 20:12:00,
2013-08-31 15:22:00,-999.0,-99.9,-100.00,East,100,7.0,8.0,-999,-99.99,,,-99.99,,2013-08-31 20:22:00,
2013-08-31 15:32:00,-999.0,-99.9,-100.00,East,100,7.0,8.0,-999,-99.99,,,-99.99,,2013-08-31 20:32:00,
2013-08-31 15:43:00,-999.0,-99.9,-100.00,East,80,5.0,6.0,-999,-99.99,,,-99.99,,2013-08-31 20:43:00,
2013-08-31 15:53:00,-999.0,-99.9,-100.00,East,80,5.0,6.0,-999,-99.99,,,-99.99,,2013-08-31 20:53:00,
2013-08-31 16:44:00,-999.0,-99.9,-100.00,East,80,7.0,8.0,-999,-99.99,,,-99.99,,2013-08-31 21:44:00,
2013-08-31 16:54:00,-999.0,-99.9,-100.00,East,80,7.0,8.0,-999,-99.99,,,-99.99,,2013-08-31 21:54:00,
2013-08-31 17:04:00,-999.0,-99.9,-100.00,East,80,7.0,8.0,-999,-99.99,,,-99.99,,2013-08-31 22:04:00,
2013-08-31 17:13:00,-999.0,-99.9,-100.00,East,90,3.0,5.0,-999,-99.99,,,-99.99,,2013-08-31 22:13:00,
2013-08-31 17:24:00,-999.0,-99.9,-100.00,East,90,3.0,5.0,-999,-99.99,,,-99.99,,2013-08-31 22:24:00,
2013-08-31 17:32:00,-999.0,-99.9,-100.00,East,90,3.0,5.0,-999,-99.99,,,-99.99,,2013-08-31 22:32:00,
2013-08-31 17:44:00,-999.0,-99.9,-100.00,East,90,6.0,7.0,-999,-99.99,,,-99.99,,2013-08-31 22:44:00,
2013-08-31 17:53:00,-999.0,-99.9,-100.00,East,90,6.0,7.0,-999,-99.99,,,-99.99,,2013-08-31 22:53:00,
2013-08-31 18:12:00,-999.0,-99.9,-100.00,North,0,0.0,0.0,-999,-99.99,,,-99.99,,2013-08-31 23:12:00,
2013-08-31 18:23:00,-999.0,-99.9,-100.00,North,0,0.0,0.0,-999,-99.99,,,-99.99,,2013-08-31 23:23:00,
2013-08-31 18:34:00,-999.0,-99.9,-100.00,North,0,0.0,0.0,-999,-99.99,,,-99.99,,2013-08-31 23:34:00,
2013-08-31 18:42:00,-999.0,-99.9,-100.00,North,0,0.0,0.0,-999,-99.99,,,-99.99,,2013-08-31 23:42:00,
2013-08-31 18:52:00,-999.0,-99.9,-100.00,North,0,0.0,0.0,-999,-99.99,,,-99.99,,2013-08-31 23:52:00,
2013-08-31 19:02:00,-999.0,-99.9,-100.00,North,0,0.0,0.0,-999,-99.99,,,-99.99,,2013-09-01 00:02:00,
2013-08-31 19:11:00,-999.0,-99.9,-100.00,North,0,0.0,0.0,-999,-99.99,,,-99.99,,2013-09-01 00:11:00,
2013-08-31 19:22:00,-999.0,-99.9,-100.00,North,0,0.0,0.0,-999,-99.99,,,-99.99,,2013-09-01 00:22:00,
2013-08-31 19:32:00,-999.0,-99.9,-100.00,North,0,0.0,0.0,-999,-99.99,,,-99.99,,2013-09-01 00:32:00,
2013-08-31 19:42:00,-999.0,-99.9,-100.00,North,0,0.0,0.0,-999,-99.99,,,-99.99,,2013-09-01 00:42:00,
2013-08-31 19:52:00,-999.0,-99.9,-100.00,North,0,0.0,0.0,-999,-99.99,,,-99.99,,2013-09-01 00:52:00,
2013-08-31 20:02:00,-999.0,-99.9,-100.00,North,0,0.0,0.0,-999,-99.99,,,-99.99,,2013-09-01 01:02:00,
2013-08-31 20:12:00,-999.0,-99.9,-100.00,North,0,0.0,0.0,-999,-99.99,,,-99.99,,2013-09-01 01:12:00,
2013-08-31 20:22:00,-999.0,-99.9,-100.00,North,0,0.0,0.0,-999,-99.99,,,-99.99,,2013-09-01 01:22:00,
2013-08-31 20:32:00,-999.0,-99.9,-100.00,North,0,0.0,0.0,-999,-99.99,,,-99.99,,2013-09-01 01:32:00,
2013-08-31 20:42:00,-999.0,-99.9,-100.00,North,0,0.0,0.0,-999,-99.99,,,-99.99,,2013-09-01 01:42:00,
2013-08-31 20:52:00,-999.0,-99.9,-100.00,North,0,0.0,0.0,-999,-99.99,,,-99.99,,2013-09-01 01:52:00,
2013-08-31 21:02:00,-999.0,-99.9,-100.00,North,0,0.0,0.0,-999,-99.99,,,-99.99,,2013-09-01 02:02:00,
2013-08-31 21:12:00,-999.0,-99.9,-100.00,North,0,0.0,0.0,-999,-99.99,,,-99.99,,2013-09-01 02:12:00,
2013-08-31 21:23:00,-999.0,-99.9,-100.00,North,0,0.0,0.0,-999,-99.99,,,-99.99,,2013-09-01 02:23:00,
2013-08-31 22:12:00,-999.0,-99.9,-100.00,North,0,0.0,0.0,-999,-99.99,,,-99.99,,2013-09-01 03:12:00,
2013-08-31 22:23:00,-999.0,-99.9,-100.00,North,0,0.0,0.0,-999,-99.99,,,-99.99,,2013-09-01 03:23:00,
2013-08-31 22:35:00,-999.0,-99.9,-100.00,North,0,0.0,0.0,-999,-99.99,,,-99.99,,2013-09-01 03:35:00,
2013-08-31 22:44:00,-999.0,-99.9,-100.00,North,0,0.0,0.0,-999,-99.99,,,-99.99,,2013-09-01 03:44:00,
2013-08-31 22:54:00,-999.0,-99.9,-100.00,North,0,0.0,0.0,-999,-99.99,,,-99.99,,2013-09-01 03:54:00,
2013-08-31 23:14:00,-999.0,-99.9,-100.00,North,0,0.0,0.0,-999,-99.99,,,-99.99,,2013-09-01 04:14:00,
2013-08-31 23:25:00,-999.0,-99.9,-100.00,North,0,0.0,0.0,-999,-99.99,,,-99.99,,2013-09-01 04:25:00,
2013-08-31 23:41:00,-999.0,-99.9,-100.00,North,0,0.0,0.0,-999,-99.99,,,-99.99,,2013-09-01 04:41:00,
2013-08-31 23:43:00,-999.0,-99.9,-100.00,North,0,0.0,0.0,-999,-99.99,,,-99.99,,2013-09-01 04:43:00,
2013-08-31 23:54:00,-999.0,-99.9,-100.00,North,0,0.0,0.0,-999,-99.99,,,-99.99,,2013-09-01 04:54:00,